CW9072 Weather Reports


Display with metric or nautical units.
time (UTC)temp
F
wind
direction
speed
MPH
gust
MPH
rain 1hr
in
rain 24hr
in
rain mn
in
humidity
%
barometer
mb
20190620161924 63 192 2.0 7.0 0.00 0.00 0.00 77 1012.7
20190620161424 63 175 3.0 7.0 0.00 0.00 0.00 78 1012.7
20190620160425 62 169 3.0 9.0 0.00 0.00 0.00 81 1012.7
20190620155925 61 168 3.0 10.0 0.00 0.00 0.00 84 1012.7
20190620155421 60 169 6.0 10.0 0.00 0.00 0.00 85 1012.7
20190620154419 59 165 4.0 8.0 0.00 0.00 0.00 88 1012.7
20190620153419 58 161 4.0 7.0 0.00 0.00 0.00 89 1012.7
20190620152921 58 164 4.0 7.0 0.00 0.00 0.00 88 1012.6
20190620151916 58 157 4.0 8.0 0.00 0.00 0.00 88 1012.6
20190620151415 58 172 3.0 8.0 0.00 0.00 0.00 88 1012.6
20190620150915 58 125 3.0 6.0 0.00 0.00 0.00 88 1012.5
20190620145914 57 128 2.0 3.0 0.00 0.00 0.00 88 1012.4
20190620144412 56 131 2.0 3.0 0.00 0.00 0.00 90 1012.5
20190620143911 56 132 1.0 2.0 0.00 0.00 0.00 90 1012.5
20190620142911 56 132 1.0 3.0 0.00 0.00 0.00 90 1012.4
20190620142410 56 132 2.0 3.0 0.00 0.00 0.00 91 1012.4
20190620135906 54 132 0.0 2.0 0.00 0.00 0.00 90 1012.2
20190620135406 54 132 0.0 3.0 0.00 0.00 0.00 91 1012.2
20190620134905 54 103 0.0 3.0 0.00 0.00 0.00 90 1012.2
20190620132902 54 86 0.0 0.0 0.00 0.00 0.00 89 1012.0
20190620132403 54 86 0.0 0.0 0.00 0.00 0.00 89 1012.0
20190620131902 54 239 0.0 0.0 0.00 0.00 0.00 89 1011.9
20190620130900 55 239 0.0 0.0 0.00 0.00 0.00 91 1011.9
20190620130359 55 239 0.0 0.0 0.00 0.00 0.00 90 1011.9
20190620125858 55 239 0.0 1.0 0.00 0.00 0.00 89 1011.8
20190620125359 55 239 0.0 1.0 0.00 0.00 0.00 90 1011.8
20190620124357 55 239 0.0 2.0 0.00 0.00 0.00 91 1011.9
20190620123857 55 239 0.0 3.0 0.00 0.00 0.00 88 1011.9
20190620123355 56 238 0.0 3.0 0.00 0.00 0.00 87 1011.9
20190620122855 56 238 0.0 2.0 0.00 0.00 0.00 90 1011.8
20190620122354 56 238 0.0 2.0 0.00 0.00 0.00 90 1011.9
20190620121853 56 238 0.0 2.0 0.00 0.00 0.00 90 1011.8
20190620121353 56 238 0.0 2.0 0.00 0.00 0.00 90 1011.8
20190620120853 56 238 0.0 0.0 0.00 0.00 0.00 90 1011.8
20190620120352 56 238 0.0 0.0 0.00 0.00 0.00 89 1011.8
20190620115851 56 238 0.0 0.0 0.00 0.00 0.00 88 1011.8
20190620115351 56 238 0.0 3.0 0.00 0.00 0.00 89 1011.9
20190620113848 57 238 0.0 2.0 0.00 0.00 0.00 88 1011.9
20190620113348 57 238 0.0 2.0 0.00 0.00 0.00 88 1011.8
20190620112347 57 238 0.0 3.0 0.00 0.00 0.00 88 1011.8
20190620111846 57 238 1.0 3.0 0.00 0.00 0.00 88 1011.9
20190620111346 57 239 1.0 3.0 0.00 0.00 0.00 87 1011.9
20190620110846 57 238 1.0 3.0 0.00 0.00 0.00 87 1011.9
20190620105343 57 237 1.0 5.0 0.00 0.00 0.00 87 1011.9
20190620104342 58 241 1.0 3.0 0.00 0.00 0.00 87 1012.0
20190620103841 58 240 0.0 3.0 0.00 0.00 0.00 86 1012.0
20190620103341 58 251 1.0 3.0 0.00 0.00 0.00 86 1012.0
20190620101842 58 257 2.0 8.0 0.00 0.00 0.00 85 1012.0
20190620101338 58 296 0.0 8.0 0.00 0.00 0.00 85 1012.1
20190620100337 58 298 1.0 7.0 0.00 0.00 0.00 84 1012.2
20190620095335 58 284 0.0 3.0 0.00 0.00 0.00 85 1012.2
20190620093333 58 309 2.0 3.0 0.00 0.00 0.00 86 1012.3
20190620092331 57 302 0.0 3.0 0.00 0.00 0.00 86 1012.4
20190620091831 57 302 0.0 1.0 0.00 0.00 0.00 86 1012.4
20190620091330 57 302 0.0 1.0 0.00 0.00 0.00 86 1012.4
20190620085328 57 306 2.0 3.0 0.00 0.00 0.00 87 1012.6
20190620084827 57 308 1.0 3.0 0.00 0.00 0.00 87 1012.7
20190620084327 57 308 1.0 3.0 0.00 0.00 0.00 88 1012.7
20190620083326 56 339 1.0 3.0 0.00 0.00 0.00 89 1012.9
20190620082825 56 344 0.0 0.0 0.00 0.00 0.00 89 1012.9
20190620082325 56 344 0.0 0.0 0.00 0.00 0.00 88 1013.0
20190620081323 56 344 0.0 0.0 0.00 0.00 0.00 88 1013.1
20190620080822 55 344 0.0 0.0 0.00 0.00 0.00 88 1013.1
20190620080322 56 344 0.0 0.0 0.00 0.00 0.00 87 1013.2
20190620075821 56 344 0.0 0.0 0.00 0.00 0.00 87 1013.2
20190620075427 56 344 0.0 2.0 0.00 0.00 0.00 88 1013.2
20190620074927 56 344 0.0 2.0 0.00 0.00 0.00 87 1013.3
20190620072924 56 344 2.0 5.0 0.00 0.00 0.00 88 1013.2
20190620072424 56 320 0.0 3.0 0.00 0.00 0.00 87 1013.3
20190620071923 56 314 0.0 3.0 0.00 0.00 0.00 86 1013.3
20190620071423 56 316 0.0 0.0 0.00 0.00 0.00 85 1013.3
20190620070922 56 317 0.0 2.0 0.00 0.00 0.00 85 1013.4
20190620070422 57 317 0.0 2.0 0.00 0.00 0.00 85 1013.4
20190620065921 57 317 1.0 2.0 0.00 0.00 0.00 84 1013.4
20190620064919 57 317 0.0 2.0 0.00 0.00 0.00 84 1013.3
20190620064419 57 317 0.0 5.0 0.00 0.00 0.00 85 1013.3
20190620063418 58 279 0.0 5.0 0.00 0.00 0.00 85 1013.4
20190620062917 58 295 1.0 3.0 0.00 0.00 0.00 84 1013.4
20190620061915 58 302 0.0 7.0 0.00 0.00 0.00 83 1013.4
20190620061419 58 294 2.0 7.0 0.00 0.00 0.00 83 1013.3
20190620060915 59 268 1.0 3.0 0.00 0.00 0.00 82 1013.3
20190620055914 59 296 1.0 3.0 0.00 0.00 0.00 80 1013.3
20190620055413 60 296 0.0 3.0 0.00 0.00 0.00 79 1013.4
20190620054912 60 296 0.0 3.0 0.00 0.00 0.00 78 1013.3
20190620054411 60 297 0.0 3.0 0.00 0.00 0.00 77 1013.4
20190620053910 61 304 0.0 0.0 0.00 0.00 0.00 77 1013.4
20190620053410 61 304 0.0 0.0 0.00 0.00 0.00 76 1013.4
20190620052409 61 304 0.0 0.0 0.00 0.00 0.00 75 1013.4
20190620051908 62 304 0.0 3.0 0.00 0.00 0.00 75 1013.4
20190620051407 62 304 0.0 3.0 0.00 0.00 0.00 75 1013.3
20190620050907 62 0 0.0 3.0 0.00 0.00 0.00 74 1013.3
20190620050406 62 0 2.0 3.0 0.00 0.00 0.00 73 1013.3
20190620045905 63 0 1.0 3.0 0.00 0.00 0.00 73 1013.3
20190620044904 63 354 3.0 7.0 0.00 0.00 0.00 72 1013.2
20190620043907 63 275 2.0 8.0 0.00 0.00 0.00 71 1013.3
20190620042902 63 229 0.0 7.0 0.00 0.00 0.00 71 1013.2
20190620042405 64 271 2.0 8.0 0.00 0.00 0.00 70 1013.3
20190620041404 64 296 4.0 9.0 0.00 0.00 0.00 69 1013.2
20190620040900 64 308 5.0 9.0 0.00 0.00 0.00 69 1013.2
20190620035901 65 240 2.0 10.0 0.00 0.00 0.00 68 1013.2
20190620034856 65 315 1.0 9.0 0.00 0.00 0.00 67 1013.3
20190620034400 65 260 5.0 9.0 0.00 0.00 0.00 66 1013.2
20190620033900 66 292 3.0 9.0 0.00 0.00 0.00 66 1013.2
20190620033355 66 284 2.0 10.0 0.00 0.00 0.00 65 1013.2
20190620032858 66 276 3.0 12.0 0.00 0.00 0.00 64 1013.2
20190620032357 67 247 1.0 12.0 0.00 0.00 0.00 63 1013.1
20190620031857 67 302 4.0 12.0 0.00 0.00 0.00 62 1013.0
20190620031355 67 255 3.0 12.0 0.00 0.00 0.00 62 1013.0
20190620030856 68 296 2.0 12.0 0.00 0.00 0.00 61 1012.9
20190620030354 68 229 3.0 9.0 0.00 0.00 0.00 60 1012.9
20190620025353 69 246 2.0 7.0 0.00 0.00 0.00 58 1012.8
20190620024849 69 266 2.0 8.0 0.00 0.00 0.00 57 1012.7
20190620023851 70 249 3.0 9.0 0.00 0.00 0.00 56 1012.7
20190620023350 70 251 3.0 10.0 0.00 0.00 0.00 55 1012.6
20190620022850 70 242 5.0 12.0 0.00 0.00 0.00 54 1012.6
20190620022349 71 288 5.0 12.0 0.00 0.00 0.00 53 1012.6
20190620020847 72 280 5.0 9.0 0.00 0.00 0.00 52 1012.5
20190620020346 72 289 3.0 9.0 0.00 0.00 0.00 51 1012.5
20190620015345 73 252 3.0 8.0 0.00 0.00 0.00 50 1012.4
20190620014845 74 354 2.0 12.0 0.00 0.00 0.00 49 1012.4
20190620013844 74 250 4.0 12.0 0.00 0.00 0.00 47 1012.4
20190620013343 75 230 2.0 8.0 0.00 0.00 0.00 47 1012.4
20190620012842 75 264 5.0 8.0 0.00 0.00 0.00 46 1012.4
20190620012339 75 201 2.0 9.0 0.00 0.00 0.00 46 1012.3
20190620011841 76 224 1.0 9.0 0.00 0.00 0.00 47 1012.4
20190620011340 76 318 3.0 7.0 0.00 0.00 0.00 46 1012.4
20190620010837 76 0 2.0 12.0 0.00 0.00 0.00 46 1012.4
20190620010339 76 291 5.0 12.0 0.00 0.00 0.00 46 1012.4
20190620005338 77 310 5.0 9.0 0.00 0.00 0.00 46 1012.4
20190620004337 78 182 4.0 12.0 0.00 0.00 0.00 44 1012.4
20190620003336 78 245 2.0 8.0 0.00 0.00 0.00 45 1012.5
20190620002334 78 247 3.0 12.0 0.00 0.00 0.00 45 1012.5
20190620001834 78 228 5.0 12.0 0.00 0.00 0.00 44 1012.5
20190620001332 78 225 4.0 12.0 0.00 0.00 0.00 44 1012.4
20190620000833 78 237 3.0 12.0 0.00 0.00 0.00 44 1012.5
20190620000331 78 255 3.0 10.0 0.00 0.00 0.00 45 1012.5
20190619235831 78 218 6.0 14.0 0.00 0.00 0.00 44 1012.6
20190619234830 79 251 5.0 12.0 0.00 0.00 0.00 44 1012.6
20190619234329 79 244 3.0 12.0 0.00 0.00 0.00 44 1012.6
20190619233825 79 232 3.0 8.0 0.00 0.00 0.00 43 1012.6
20190619233326 79 169 2.0 6.0 0.00 0.00 0.00 44 1012.7
20190619232327 79 237 5.0 12.0 0.00 0.00 0.00 44 1012.8
20190619231323 78 299 5.0 14.0 0.00 0.00 0.00 45 1012.8
20190619230825 79 329 5.0 9.0 0.00 0.00 0.00 44 1012.9
20190619225820 80 341 5.0 9.0 0.00 0.00 0.00 43 1012.9
20190619224929 80 236 3.0 8.0 0.00 0.00 0.00 43 1012.9
20190619223924 79 241 4.0 12.0 0.00 0.00 0.00 44 1013.0
20190619222426 79 273 3.0 10.0 0.00 0.00 0.00 45 1012.9
20190619221922 79 193 3.0 9.0 0.00 0.00 0.00 45 1012.9
20190619220923 79 236 2.0 12.0 0.00 0.00 0.00 45 1013.1
20190619220420 78 264 3.0 10.0 0.00 0.00 0.00 45 1013.0
20190619215923 78 246 3.0 8.0 0.00 0.00 0.00 46 1013.1
20190619214921 78 215 5.0 9.0 0.00 0.00 0.00 46 1013.1
20190619214420 79 247 2.0 10.0 0.00 0.00 0.00 47 1013.1
20190619213920 79 245 5.0 10.0 0.00 0.00 0.00 47 1013.2
20190619211416 78 179 6.0 12.0 0.00 0.00 0.00 48 1013.1
20190619210913 78 291 2.0 6.0 0.00 0.00 0.00 49 1013.3
20190619210412 77 281 1.0 12.0 0.00 0.00 0.00 49 1013.2
20190619204914 77 207 4.0 9.0 0.00 0.00 0.00 51 1013.3
20190619203913 77 313 3.0 10.0 0.00 0.00 0.00 50 1013.5
20190619200914 75 269 3.0 9.0 0.00 0.00 0.00 51 1013.7
20190619200408 75 240 3.0 9.0 0.00 0.00 0.00 52 1013.6
20190619195907 76 243 3.0 9.0 0.00 0.00 0.00 52 1013.7
20190619194906 76 174 2.0 8.0 0.00 0.00 0.00 52 1013.7
20190619194406 75 219 3.0 8.0 0.00 0.00 0.00 53 1013.7
20190619193904 75 258 3.0 8.0 0.00 0.00 0.00 52 1013.8
20190619193404 75 237 2.0 8.0 0.00 0.00 0.00 53 1013.9
20190619192903 74 196 3.0 9.0 0.00 0.00 0.00 54 1014.0
20190619191902 74 264 2.0 7.0 0.00 0.00 0.00 54 1014.0
20190619191402 74 249 4.0 7.0 0.00 0.00 0.00 54 1014.0
20190619190901 74 214 3.0 6.0 0.00 0.00 0.00 54 1014.0
20190619190400 73 195 2.0 9.0 0.00 0.00 0.00 55 1014.1
20190619185859 73 231 5.0 9.0 0.00 0.00 0.00 55 1014.1
20190619185359 73 247 3.0 8.0 0.00 0.00 0.00 56 1014.1
20190619183858 73 277 3.0 7.0 0.00 0.00 0.00 55 1014.1
20190619183356 72 185 3.0 9.0 0.00 0.00 0.00 57 1014.1
20190619182855 72 195 3.0 9.0 0.00 0.00 0.00 57 1014.1
20190619182355 72 230 4.0 9.0 0.00 0.00 0.00 57 1014.1
20190619181354 72 251 3.0 9.0 0.00 0.00 0.00 56 1014.1
20190619180353 72 216 3.0 8.0 0.00 0.00 0.00 56 1014.2
20190619175849 71 233 3.0 8.0 0.00 0.00 0.00 55 1014.1
20190619175351 71 218 3.0 8.0 0.00 0.00 0.00 55 1014.1
20190619174851 71 247 2.0 12.0 0.00 0.00 0.00 57 1014.1
20190619174350 71 235 3.0 12.0 0.00 0.00 0.00 57 1014.1
20190619173850 71 224 3.0 9.0 0.00 0.00 0.00 57 1014.1
20190619173346 70 209 4.0 8.0 0.00 0.00 0.00 58 1014.0
20190619172347 70 219 2.0 8.0 0.00 0.00 0.00 59 1014.0
20190619171847 70 244 5.0 8.0 0.00 0.00 0.00 58 1013.9
20190619170845 69 201 3.0 8.0 0.00 0.00 0.00 62 1014.0
20190619165845 69 226 4.0 8.0 0.00 0.00 0.00 59 1014.0
20190619165340 68 193 3.0 9.0 0.00 0.00 0.00 64 1014.0
20190619164840 68 206 3.0 9.0 0.00 0.00 0.00 64 1014.0
20190619164343 68 247 3.0 8.0 0.00 0.00 0.00 63 1014.0
20190619163842 67 238 1.0 8.0 0.00 0.00 0.00 66 1014.0
20190619163339 67 277 2.0 9.0 0.00 0.00 0.00 66 1014.0
20190619162337 67 234 2.0 9.0 0.00 0.00 0.00 68 1014.0